Regional Weather Roundup
Issued by NWS

Home | Current Version | Previous Version | Text Only | Print | Product List | Glossary On
Versions: 1 2 3 4 5 6 7 8 9 10 11 12 13 14 15 16 17 18 19 20 21 22 23 24 25 26 27 28 29 30 31 32 33 34 35 36 37 38 39 40 41 42 43 44 45 46 47 48 49 50
000
ASUS43 KLOT 212209
RWRIL

ILLINOIS REGIONAL WEATHER ROUNDUP
NATIONAL WEATHER SERVICE CHICAGO/ROMEOVILLE IL
500 PM CDT MON OCT 21 2019

NOTE: "FAIR" INDICATES FEW OR NO CLOUDS BELOW 12,000 FEET WITH NO
SIGNIFICANT WEATHER AND/OR OBSTRUCTIONS TO VISIBILITY.

* THESE STATIONS ARE NOT UNDER NWS QUALITY CONTROL. THEY ALSO MAY NOT
  REPORT WEATHER SUCH AS PRECIPITATION OR FOG.

ILZ001-002-007-009-015-016-024-212300-
NORTHWEST ILLINOIS

CITY           SKY/WX    TMP DP  RH WIND       PRES   REMARKS
MOLINE         CLOUDY    55  38  52 SW26G43   29.47R
STERLING*      CLOUDY    57  42  57 SW13G23   29.46R
SAVANNA*       CLOUDY    55  41  58 SW22G29   29.43R
$$

ILZ003-004-008-010-011-017-018-212300-
NORTH CENTRAL ILLINOIS

CITY           SKY/WX    TMP DP  RH WIND       PRES   REMARKS
ROCKFORD       FAIR      60  41  49 SW23G41   29.45R
FREEPORT*      CLOUDY    56  41  56 SW24G31   29.43R
ROCHELLE*      CLOUDY    59  40  50 SW20G31   29.46R
DE KALB*       FAIR      60  39  46 SW20G33   29.47R
PERU*          CLOUDY    59  40  50 SW18G26   29.49R
$$

ILZ005-006-012>014-019>023-212300-
NORTHEAST ILLINOIS

CITY           SKY/WX    TMP DP  RH WIND       PRES   REMARKS
CHICAGO-OHARE  FAIR      65  41  41 SW26G41   29.44R
CHICAGO-MIDWAY FAIR      67  43  41 SW22G37   29.45R
AURORA         FAIR      61  42  49 S20G36    29.46R
LANSING*       CLOUDY    65  57  73 SW16      29.47R
JOLIET*        FAIR      65  41  41 SW13G25   29.48R
WAUKEGAN       FAIR      64  43  46 SW28G40   29.40R
DUPAGE AIRPORT FAIR      63  41  44 SW28G40   29.45R
KANKAKEE*      PTSUNNY   67  47  49 SW20G30   29.51R
WHEELING       FAIR      66  43  43 SW18G29   29.44R
MORRIS*        FAIR      63  42  46 SW20G30   29.47R
ROMEOVILLE*    FAIR      63  42  45 SW22G32   29.47R
NORTHERLY ISL    N/A     66  49  54 S9          N/A
$$

LMZ740>746-212300-
SOUTHERN LAKE MICHIGAN

STATION/POSITION SKY/WX   TEMP    WIND        PRES    VSBY  WAVE
                          AIR SEA DIR/SP/G                  HT/PER
                          (F)     (DEG/KT/KT) (MB)    (MI)  (FT/S)
SOUTHERN BUOY                 54  170/ 21/ 25   N/A           6/ 6
WAUKEGAN HARBOR            59 51  190/ 19/ 27   N/A           4/ 6
WILMETTE HARBOR               52  200/ 21/ 29  995.6          4/ 5
HARRISON CRIB              66     210/ 27/ 39   N/A
NORTHERLY ISL              66     200/ 15/ 23   N/A
CALUMET HARBOR             66     190/ 12/ 20  996.7
BURNS HARBOR               64     200/ 11/ 16  998.3F
MICHIGAN CITY              65     180/ 18/ 22   N/A
MICHIGAN CITY 6N           62 53  200/ 16/ 25   N/A           2/ 3
$$

ILZ025>027-034>036-040-047-049-050-058-095>099-212300-
WEST-CENTRAL ILLINOIS

CITY           SKY/WX    TMP DP  RH WIND       PRES   REMARKS
QUINCY         CLOUDY    55  39  54 SW22G35   29.58R
GALESBURG*     CLOUDY    53  40  61 SW18G29   29.53R
MACOMB*        CLOUDY    54  39  57 SW20G28   29.56S
JACKSONVILLE*  CLOUDY    58  40  51 W17G30    29.60R
PITTSFIELD*    CLOUDY    57  42  55 SW23G30   29.63R
$$

ILZ028>032-037-038-041>044-048-051>054-059>061-212300-
CENTRAL ILLINOIS

CITY           SKY/WX    TMP DP  RH WIND       PRES   REMARKS
PONTIAC        FAIR      63  39  40 SW28G35   29.52R
BLOOMINGTON    FAIR      62  42  47 SW23G29   29.54R
DECATUR        FAIR      63  38  39 SW21G32   29.58R
PEORIA         CLOUDY    59  40  49 SW23G33   29.55R
LACON*         PTSUNNY   59  40  49 SW16G29   29.50R
LINCOLN*       FAIR      63  43  48 W10G20    29.56R
SPRINGFIELD    FAIR      61  40  45 SW18G33   29.58R
TAYLORVILLE    FAIR      63  41  45 W20       29.60R
$$

ILZ033-039-045-046-055>057-062-063-212300-
EAST-CENTRAL ILLINOIS

CITY           SKY/WX    TMP DP  RH WIND       PRES   REMARKS
CHAMPAIGN      PTSUNNY   66  55  67 SW18G26   29.55R
DANVILLE*      PTSUNNY   65  59  79 S22G28    29.54R
RANTOUL*       PTSUNNY   66  55  67 SW17G25   29.54R
MATTOON        FAIR      65  57  75 S10G22    29.56S
PARIS*         FAIR      67  60  78 S20G30    29.60R
$$

ILZ079-100>102-212300-
SOUTHWEST ILLINOIS

CITY           SKY/WX    TMP DP  RH WIND       PRES   REMARKS
ALTON          MOSUNNY   63  45  51 SW16      29.62R
BELLEVILLE     SUNNY     68  40  36 W12G22    29.60R
CAHOKIA*       SUNNY     66  40  38 W20G35    29.62R
SPARTA*        SUNNY     68  43  40 SW14G20   29.64R
$$

ILZ064>066-069>071-074>076-080>082-084>086-088>090-092>094-212300-
SOUTH-CENTRAL ILLINOIS

CITY           SKY/WX    TMP DP  RH WIND       PRES   REMARKS
CARBONDALE     FAIR      69  53  56 SW20G29   29.65R
CAIRO*         PTSUNNY   65  60  84 SW14G22   29.70R
EFFINGHAM*     FAIR      67  51  57 S12       29.61R
MARION         PTSUNNY   66  59  77 S16G25    29.65R
MT. VERNON     FAIR      67  56  67 SW18G26   29.63R
CENTRALIA*     MOSUNNY   69  51  52 S16G23    29.61R
SALEM*         PTSUNNY   70  57  64 S10G17    29.60R
METROPOLIS*    CLOUDY    66  58  74 SW13G20   29.71S
$$

ILZ067-068-072-073-078-083-087-091-212300-
SOUTHEAST ILLINOIS

CITY           SKY/WX    TMP DP  RH WIND       PRES   REMARKS
LAWRENCEVILLE  PTSUNNY   67  59  75 S21G26    29.64R
FAIRFIELD*     PTSUNNY   67  59  76 S10G17    29.63R
HARRISBURG*    PTSUNNY   65  59  80 SW17G28   29.67R
ROBINSON*      PTSUNNY   65  58  78 SW20G25   29.63R
CARMI*         CLOUDY    64  59  82 S18G30    29.65S
$$

ABBREVIATIONS USED IN REMARKS
   TC - TEMPERATURE IN CELSIUS
  WCI - WIND CHILL INDEX
   HX - HEAT INDEX
  VSB - VISIBILITY
$$




USA.gov is the U.S. government's official web portal to all federal, state and local government web resources and services.